{"data":{"norad_id":58437,"epoch":"2026-05-24T19:14:02.478912Z","epoch_age_seconds":92240,"freshness":"FRESH","line1":"1 58437U 23183A   26144.80141758 -.00000599  00000+0 -12221-4 0  9991","line2":"2 58437  43.0012 331.8676 0002154 272.6628  87.3977 15.27573463138374","mean_motion":15.27573463,"eccentricity":0.0002154,"inclination_deg":43.0012,"raan_deg":331.8676,"arg_perigee_deg":272.6628,"mean_anomaly_deg":87.3977,"bstar":-1.2221e-5,"rev_number":13837,"period_min":94.267152112736,"perigee_km":481.59076653776,"apogee_km":484.5465739405,"semimajor_km":6861.2056702391,"source":"CELESTRAK","updated_at":"2026-05-25T13:38:18.621648Z"}}